User: anonymous
Location: Caltech
(34.1382°N, 118.1253°W)
Time: 19:33:14
(UTC-07:00)
Language:

RS-15 - Orbit

View from above orbital plane
View from above orbital plane
View from above satellite
View from above satellite

Ground track
Ground track

The orbit data is extracted from the following two-line orbital elements,

1 23439U 94085A   14207.51282544 -.00000039  00000-0  10000-3 0  6930
2 23439 064.8167 128.1357 0145544 074.9010 286.7956 11.27561497806433
Epoch (UTC): 26 July 2014 12:18:28
Eccentricity: 0.0145544
inclination: 64.8167°
perigee height: 1900 km
apogee height: 2144 km
right ascension of ascending node: 128.1357°
argument of perigee: 74.9010°
revolutions per day: 11.27561497
mean anomaly at epoch: 286.7956°
orbit number at epoch: 80643

The dashed part of the orbit path shows where the satellite is in the earth's shadow,  

DLR